TimeCST,TemperatureF,Dew PointF,Humidity,Sea Level PressureIn,VisibilityMPH,Wind Direction,Wind SpeedMPH,Gust SpeedMPH,PrecipitationIn,Events,Conditions,WindDirDegrees,DateUTC
12:53 AM,60.1,54.0,80,29.96,10.0,South,15.0,23.0,N/A,,Overcast,170,2013-01-01 06:53:00
1:53 AM,60.1,54.0,80,29.96,10.0,South,15.0,-,N/A,,Overcast,170,2013-01-01 07:53:00
2:37 AM,60.8,53.6,77,30.01,10.0,WNW,12.7,-,N/A,,Overcast,300,2013-01-01 08:37:00
2:53 AM,57.9,55.9,93,30.00,1.5,NW,8.1,-,0.07,Rain,Heavy Rain,310,2013-01-01 08:53:00
3:04 AM,57.2,55.4,94,30.02,2.0,NNW,5.8,-,0.06,Rain,Rain,330,2013-01-01 09:04:00
3:16 AM,57.2,55.4,94,30.02,1.2,NNW,4.6,-,0.14,Rain,Heavy Rain,330,2013-01-01 09:16:00
3:22 AM,57.2,55.4,94,30.02,2.0,NNW,6.9,-,0.16,Rain,Rain,330,2013-01-01 09:22:00
3:45 AM,55.4,53.6,94,30.03,3.0,NNW,6.9,-,0.23,Rain,Rain,340,2013-01-01 09:45:00
3:53 AM,55.9,54.0,93,30.01,2.5,North,9.2,-,0.25,Rain,Rain,360,2013-01-01 09:53:00
3:56 AM,55.4,53.6,94,30.02,3.0,North,8.1,-,0.00,Rain,Rain,360,2013-01-01 09:56:00
4:19 AM,55.4,53.6,94,30.01,7.0,Calm,Calm,-,0.01,Rain,Light Rain,0,2013-01-01 10:19:00
4:35 AM,55.4,53.6,94,30.00,2.5,NE,3.5,-,0.08,Rain,Rain,50,2013-01-01 10:35:00
4:42 AM,55.4,53.6,94,30.00,4.0,East,3.5,-,0.10,Rain,Rain,90,2013-01-01 10:42:00
4:53 AM,55.0,54.0,96,29.99,2.0,Calm,Calm,-,0.18,Rain,Heavy Rain,0,2013-01-01 10:53:00
5:27 AM,55.4,53.6,94,30.00,3.0,Calm,Calm,-,0.21,Rain,Rain,0,2013-01-01 11:27:00
5:37 AM,53.6,53.6,100,30.00,5.0,NE,3.5,-,0.23,Rain,Light Rain,50,2013-01-01 11:37:00
6:11 AM,53.6,53.6,100,30.00,10.0,Calm,Calm,-,0.01,Rain,Light Rain,0,2013-01-01 12:11:00
6:36 AM,53.6,53.6,100,30.01,4.0,Calm,Calm,-,0.02,Rain,Rain,0,2013-01-01 12:36:00
6:43 AM,53.6,53.6,100,30.01,5.0,Calm,Calm,-,0.03,Rain,Rain,0,2013-01-01 12:43:00
6:53 AM,54.0,53.1,97,30.00,4.0,Calm,Calm,-,0.06,Rain,Rain,0,2013-01-01 12:53:00
7:24 AM,55.4,53.6,94,30.02,2.5,Calm,Calm,-,0.07,Rain,Rain,0,2013-01-01 13:24:00
7:36 AM,55.4,53.6,94,30.02,4.0,Calm,Calm,-,0.09,Rain,Light Rain,0,2013-01-01 13:36:00
7:43 AM,55.4,53.6,94,30.02,1.8,Calm,Calm,-,0.11,Rain,Heavy Rain,0,2013-01-01 13:43:00
7:53 AM,55.0,53.1,93,30.00,1.0,Calm,Calm,-,0.17,Rain,Heavy Rain,0,2013-01-01 13:53:00
8:04 AM,55.4,53.6,94,30.01,1.5,East,3.5,-,0.05,Rain,Heavy Rain,90,2013-01-01 14:04:00
8:17 AM,55.4,53.6,94,30.01,3.0,ENE,3.5,-,0.08,Rain,Rain,70,2013-01-01 14:17:00
8:25 AM,55.4,53.6,94,30.01,6.0,ESE,3.5,-,0.08,Rain,Light Rain,110,2013-01-01 14:25:00
8:36 AM,55.4,53.6,94,30.02,4.0,ENE,3.5,-,0.10,Rain,Light Rain,60,2013-01-01 14:36:00
8:53 AM,55.9,55.0,97,30.01,8.0,Calm,Calm,-,0.10,Rain,Light Rain,0,2013-01-01 14:53:00
9:22 AM,55.4,53.6,94,30.04,2.5,NW,5.8,-,0.04,Rain,Rain,320,2013-01-01 15:22:00
9:33 AM,55.4,53.6,94,30.05,3.0,NW,6.9,-,0.05,Rain,Light Rain,310,2013-01-01 15:33:00
9:53 AM,55.0,54.0,96,30.03,4.0,Calm,Calm,-,0.07,Rain,Light Rain,0,2013-01-01 15:53:00
10:28 AM,55.4,53.6,94,30.04,5.0,North,3.5,-,0.03,Rain,Light Rain,10,2013-01-01 16:28:00
10:53 AM,55.0,54.0,96,30.01,5.0,North,3.5,-,0.05,Rain,Light Rain,360,2013-01-01 16:53:00
11:53 AM,55.0,53.1,93,29.99,6.0,NNW,3.5,-,0.03,Rain,Light Rain,340,2013-01-01 17:53:00
12:53 PM,54.0,53.1,97,29.97,1.8,North,6.9,-,0.07,Rain,Rain,350,2013-01-01 18:53:00
1:14 PM,53.6,53.6,100,29.98,2.5,NNW,5.8,-,0.03,Rain,Rain,340,2013-01-01 19:14:00
1:32 PM,51.8,50.0,94,29.98,4.0,NNW,9.2,-,0.07,Rain,Light Rain,330,2013-01-01 19:32:00
1:53 PM,51.1,50.0,96,29.98,6.0,NNW,9.2,-,0.08,Rain,Light Rain,330,2013-01-01 19:53:00
2:53 PM,48.9,48.0,97,30.00,3.0,NW,10.4,-,0.04,Rain,Rain,320,2013-01-01 20:53:00
3:26 PM,48.2,46.4,93,30.02,2.5,NNW,8.1,-,0.03,Rain,Rain,340,2013-01-01 21:26:00
3:36 PM,48.2,46.4,93,30.03,4.0,NNW,6.9,-,0.04,Rain,Light Rain,330,2013-01-01 21:36:00
3:53 PM,46.9,46.0,97,30.04,5.0,NW,10.4,-,0.06,Rain,Light Rain,320,2013-01-01 21:53:00
4:39 PM,46.4,44.6,93,30.06,3.0,NW,8.1,-,0.06,Rain,Rain,320,2013-01-01 22:39:00
4:46 PM,46.4,44.6,93,30.06,4.0,NNW,8.1,-,0.07,Rain,Rain,340,2013-01-01 22:46:00
4:53 PM,46.9,45.0,93,30.04,4.0,NNW,3.5,-,0.08,Rain,Rain,330,2013-01-01 22:53:00
5:53 PM,46.0,45.0,96,30.04,8.0,Calm,Calm,-,0.05,Rain,Light Rain,0,2013-01-01 23:53:00
6:53 PM,46.9,45.0,93,30.08,9.0,NW,10.4,-,0.03,Rain,Light Rain,310,2013-01-02 00:53:00
7:04 PM,46.4,44.6,93,30.08,8.0,NW,10.4,17.3,0.00,,Overcast,320,2013-01-02 01:04:00
7:53 PM,45.0,43.0,93,30.10,4.0,NNW,9.2,21.9,0.00,,Overcast,330,2013-01-02 01:53:00
8:53 PM,44.1,43.0,96,30.13,5.0,NNW,5.8,17.3,N/A,,Overcast,330,2013-01-02 02:53:00
9:20 PM,44.6,42.8,93,30.15,7.0,NNW,10.4,17.3,N/A,,Overcast,330,2013-01-02 03:20:00
9:53 PM,43.0,42.1,97,30.14,4.0,NNW,5.8,-,N/A,,Overcast,340,2013-01-02 03:53:00
10:24 PM,42.8,42.8,100,30.16,3.0,NNW,9.2,-,N/A,,Overcast,330,2013-01-02 04:24:00
10:53 PM,42.1,41.0,96,30.15,3.0,NW,11.5,16.1,N/A,,Overcast,320,2013-01-02 04:53:00
11:18 PM,41.0,39.2,93,30.16,2.5,NNW,10.4,17.3,N/A,,Overcast,330,2013-01-02 05:18:00
11:53 PM,41.0,39.0,93,30.14,2.0,NNW,9.2,-,N/A,,Overcast,340,2013-01-02 05:53:00